Vorticity
8 9 15 23 25 16 12 12 9 14 10 9 9 10 10 7 6 6 8 4 4 12 10 12 11 7 6
4 4 5 7 9 22 32 15 8 11 13 17 16 14 17 19 19 13 14 10 10 13 11 11 14 24 31
5 5 6 5 4 5 7 17 22 17 12 12 12 11 12 10 10 12 13 15 21 18 13 16 17 -5 23
11 10 9 9 6 6 5 3 3 7 12 14 7 8 19 22 14 9 14 11 9 4 5 3 2 3 4
7 6 11 13 12 9 9 7 6 4 4 4 4 4 5 4 5 4 3 4 5 6 8 9 9 8 7
7 22 11 -0 6 13 12 12 10 8 8 9 9 9 9 8 8 9 9 6 5 7 10 12 13 13 13
3 8 7 22 8 5 3 11 13 9 10 10 9 9 9 10 11 11 13 13 13 10 10 9 8 9 11
6 8 5 11 17 10 6 5 14 13 8 10 11 11 10 12 13 13 9 9 9 8 5 3 2 2 1
6 -0 10 2 17 13 8 7 10 19 9 9 10 11 13 12 8 9 9 7 5 5 4 5 4 5 9
5 7 7 10 5 18 13 8 9 12 12 10 11 13 8 8 9 8 7 8 6 7 6 7 6 8 17
8 11 -2 13 8 11 17 11 10 12 9 11 11 9 8 7 9 7 9 9 8 7 7 8 11 13 12
10 14 1 6 15 10 14 13 10 15 11 11 11 9 6 10 8 12 10 8 6 6 10 10 13 15 20
10 4 15 9 16 11 15 10 11 16 14 11 12 11 10 7 8 10 9 9 8 8 11 13 15 17 27
8 13 10 17 13 6 7 12 16 16 10 11 11 15 13 9 7 8 8 6 5 9 14 18 18 21 18
13 15 10 15 9 5 8 11 18 12 13 8 17 15 10 9 9 8 7 6 10 10 18 24 18 21 15
16 11 12 6 7 8 9 10 18 14 11 13 17 9 9 10 7 9 8 10 14 15 18 21 18 10 18
12 10 7 5 7 12 12 19 15 11 14 17 13 11 10 9 7 7 10 14 17 14 14 29 11 10 25
Height
5636 5634 5631 5629 5627 5626 5626 5626 5626 5624 5624 5623 5623 5623 5623 5623 5623 5623 5624 5623 5623 5622 5622 5621 5620 5621 5622
5636 5633 5630 5627 5625 5621 5619 5618 5618 5616 5616 5615 5614 5613 5612 5611 5611 5611 5611 5611 5611 5611 5610 5609 5610 5608 5607
5633 5630 5627 5623 5620 5616 5614 5611 5609 5608 5607 5606 5605 5604 5603 5602 5602 5601 5600 5600 5599 5599 5599 5598 5598 5598 5596
5627 5624 5621 5618 5615 5612 5610 5607 5604 5602 5601 5598 5597 5596 5595 5594 5593 5592 5590 5590 5589 5588 5587 5586 5585 5584 5583
5622 5618 5615 5612 5609 5606 5603 5600 5597 5595 5593 5591 5589 5588 5586 5585 5583 5582 5580 5579 5578 5576 5574 5573 5571 5569 5567
5615 5612 5608 5604 5601 5598 5595 5593 5591 5586 5583 5581 5579 5577 5575 5573 5571 5569 5568 5567 5565 5563 5560 5558 5555 5554 5552
5607 5603 5600 5597 5593 5589 5585 5583 5580 5578 5573 5570 5567 5565 5564 5562 5559 5558 5556 5554 5551 5549 5547 5545 5542 5540 5537
5597 5593 5589 5585 5582 5579 5576 5572 5568 5565 5563 5560 5556 5553 5551 5549 5547 5545 5543 5541 5539 5536 5533 5530 5527 5524 5520
5589 5585 5581 5576 5571 5568 5566 5562 5558 5554 5550 5548 5546 5543 5540 5537 5535 5533 5530 5528 5525 5521 5518 5514 5511 5507 5502
5577 5573 5569 5565 5561 5557 5553 5549 5546 5543 5540 5538 5534 5531 5529 5525 5523 5521 5518 5514 5510 5507 5502 5498 5494 5490 5484
5564 5560 5556 5551 5548 5543 5539 5536 5534 5532 5529 5526 5523 5520 5517 5514 5510 5508 5504 5501 5497 5492 5487 5481 5476 5472 5467
5549 5546 5543 5539 5534 5530 5525 5522 5519 5517 5516 5514 5511 5508 5505 5502 5498 5495 5491 5488 5483 5477 5471 5465 5459 5452 5446
5535 5531 5528 5525 5521 5517 5514 5510 5508 5505 5503 5501 5498 5496 5494 5491 5486 5483 5479 5472 5468 5462 5455 5448 5441 5435 5430
5520 5517 5514 5511 5507 5504 5501 5498 5496 5493 5491 5488 5486 5483 5480 5478 5474 5470 5466 5460 5451 5446 5440 5431 5424 5421 5416
5505 5503 5500 5497 5494 5490 5487 5483 5482 5480 5478 5475 5473 5470 5466 5464 5460 5458 5453 5445 5439 5434 5426 5418 5410 5409 5404
5490 5488 5486 5483 5480 5477 5475 5471 5469 5467 5465 5463 5461 5458 5454 5451 5449 5446 5440 5432 5424 5418 5414 5409 5401 5397 5393
5475 5473 5471 5469 5467 5464 5461 5458 5457 5455 5453 5451 5449 5447 5443 5439 5435 5434 5428 5420 5413 5405 5401 5396 5393 5387 5382